{"data":{"norad_id":65520,"epoch":"2026-09-20T22:34:02.665632Z","epoch_age_seconds":73930,"freshness":"FRESH","line1":"1 65520U 25200A   26263.94030863  .00015639  00000+0  48474-3 0  9992","line2":"2 65520  97.2854 330.3869 0006679 261.6203  98.4283 15.33490601 58701","mean_motion":15.33490601,"eccentricity":0.0006679,"inclination_deg":97.2854,"raan_deg":330.3869,"arg_perigee_deg":261.6203,"mean_anomaly_deg":98.4283,"bstar":0.00048474,"rev_number":5870,"period_min":93.903412193134,"perigee_km":460.83669797487,"apogee_km":469.97830471977,"semimajor_km":6843.5445013473,"source":"CELESTRAK","updated_at":"2026-09-21T09:00:35.647438Z"}}